Location: Lombard
(41.8800°N, 88.0080°W)
Time: 23:02:43
(UTC-05:00)

Transit 2A - Pass Details

Date: 12 February 2023
Orbit: 591 x 964 km, 66.7° (Epoch: 20 March)

Event Time Altitude Azimuth Distance (km) Brightness Sun altitude
Rises 13:35:53 0° 175° (S) 2,963 9.9 30.8°
Reaches altitude 10° 13:38:24 10° 162° (SSE) 2,110 9.0 30.6°
Maximum altitude 13:42:18 25° 107° (ESE) 1,427 7.5 30.3°
Drops below altitude 10° 13:46:32 10° 53° (NE) 2,316 8.1 29.9°
Sets 13:49:25 0° 41° (NE) 3,321 8.8 29.7°
